Weather in Celle

Germany     52°37′22″N   10°04′26″E
temp.,
°C
wind,
m/s
gust,
m/s
humid.,
%
clouds,
%
prec.,
mm/h
press.,
hPa
HPBL,
m
21 june, mon
mon2123:00+20nne347075 0.0 100884
02:00+18ne41188100 0.0 1008389
05:00+17nne41098100 9.0 1005438
08:00+16nnw3499100 39.8 1005225
11:00+18nnw218990 0.9 1006464
14:00+22w247664 1.2 1006813
17:00+22nnw337521 1.5 1007625
20:00+19nw4682100 1.6 1009552
22 june, tue
tue2223:00+13nnw4895100 0.5 1012428
02:00+13nw3593100 0.6 1013326
05:00+11nw3892100 0.0 1014400
08:00+13n3581100 0.0 1016624
11:00+17nnw336448 0.0 10171095
14:00+20nw335537 0.0 10161378
17:00+21wnw325214 0.0 10161439
20:00+18nnw47675 0.0 1017463
23 june, wed
wed2323:00+13n37774 0.0 1019220
02:00+11nw228459 0.0 102052
05:00+10nw228871 0.0 102040
08:00+13nw237395 0.0 1021307
11:00+17wnw2253100 0.0 1021710
14:00+18wnw1251100 0.0 1021694
17:00+20nnw224624 0.0 1020854
20:00+19ne116561 0.0 102037
24 june, thu
thu2423:00+16nnw248178 0.0 102087
02:00+15n248793 0.0 1020102
05:00+15n129195 0.0 102036
08:00+17nne128299 0.0 1020327
11:00+18nne1280100 0.0 1020414
14:00+19s1174100 0.0 1019532
17:00+17s3493100 0.9 1019281
20:00+15ssw1298100 3.5 1019110
25 june, fri
fri2523:00+14sw119769 0.3 101912
02:00+14wsw129699 1.0 101948
05:00+14w2597100 0.1 1018160
08:00+14w3595100 0.1 1018229
11:00+17wnw348583 0.0 1019594
14:00+20nw446763 1.1 10191255
17:00+20nw5565100 0.1 1019974
20:00+18nw4764100 0.1 1019390